KC8OLT Weather Reports


time (UTC)temp
F
wind
direction
speed
knots
gust
knots
rain 1hr
in
rain 24hr
in
rain mn
in
humidity
%
barometer
mb
20260503050444 50 145 2.6 2.6 0.00 0.00 0.00 49 1010.0
20260503045944 51 159 2.6 2.6 0.00 0.00 0.00 57 1010.0
20260503045445 51 159 1.7 2.6 0.00 0.00 0.00 53 1010.0
20260503044944 51 195 2.6 2.6 0.00 0.00 0.00 46 1010.0
20260503044444 51 167 2.6 2.6 0.00 0.00 0.00 53 1010.0
20260503043944 50 147 2.6 2.6 0.00 0.00 0.00 50 1010.0
20260503043444 50 168 2.6 2.6 0.00 0.00 0.00 49 1010.0
20260503042944 50 158 1.7 3.5 0.00 0.00 0.00 57 1010.0
20260503042445 50 145 2.6 2.6 0.00 0.00 0.00 51 1010.0
20260503041944 51 145 1.7 2.6 0.00 0.00 0.00 59 1010.0
20260503041445 51 148 2.6 2.6 0.00 0.00 0.00 57 1010.0
20260503040944 51 166 1.7 2.6 0.00 0.00 0.00 55 1011.0
20260503040445 50 170 0.0 0.0 0.00 0.00 0.00 46 1011.0
20260503035944 50 130 2.6 2.6 0.00 0.00 0.00 51 1011.0
20260503035444 50 194 2.6 2.6 0.00 0.00 0.00 50 1011.0
20260503034944 50 156 1.7 2.6 0.00 0.00 0.00 56 1011.0
20260503034444 50 143 1.7 1.7 0.00 0.00 0.00 61 1011.0
20260503033944 50 167 1.7 2.6 0.00 0.00 0.00 60 1011.0
20260503033444 50 163 2.6 2.6 0.00 0.00 0.00 58 1011.0
20260503032944 50 164 1.7 2.6 0.00 0.00 0.00 58 1011.0
20260503032444 50 169 1.7 2.6 0.00 0.00 0.00 56 1011.0
20260503031944 50 149 1.7 2.6 0.00 0.00 0.00 61 1012.0
20260503031445 50 163 1.7 1.7 0.00 0.00 0.00 60 1012.0
20260503030943 49 145 1.7 2.6 0.00 0.00 0.00 54 1012.0
20260503030444 50 141 2.6 3.5 0.00 0.00 0.00 61 1012.0
20260503025944 50 153 1.7 2.6 0.00 0.00 0.00 58 1012.0
20260503025444 50 156 2.6 2.6 0.00 0.00 0.00 55 1012.0
20260503024944 50 124 2.6 2.6 0.00 0.00 0.00 55 1012.0
20260503024444 50 172 0.0 0.0 0.00 0.00 0.00 53 1012.0
20260503023944 50 219 0.0 0.9 0.00 0.00 0.00 51 1012.0
20260503023444 50 223 0.0 0.9 0.00 0.00 0.00 50 1012.0
20260503022512 50 195 0.0 0.9 0.00 0.00 0.00 53 1012.0
20260503021944 50 169 2.6 2.6 0.00 0.00 0.00 58 1012.0
20260503021444 50 154 1.7 2.6 0.00 0.00 0.00 54 1012.0
20260503020944 50 156 2.6 2.6 0.00 0.00 0.00 58 1012.0
20260503020444 51 149 2.6 2.6 0.00 0.00 0.00 57 1012.0
20260503015944 51 125 2.6 2.6 0.00 0.00 0.00 57 1012.0
20260503015444 51 149 3.5 3.5 0.00 0.00 0.00 54 1012.0
20260503014944 51 143 1.7 3.5 0.00 0.00 0.00 53 1012.0
20260503014444 51 151 1.7 2.6 0.00 0.00 0.00 48 1013.0
20260503013944 51 171 1.7 2.6 0.00 0.00 0.00 46 1012.0
20260503013444 50 132 1.7 2.6 0.00 0.00 0.00 47 1013.0
20260503012944 50 137 2.6 2.6 0.00 0.00 0.00 52 1013.0
20260503012446 50 145 1.7 1.7 0.00 0.00 0.00 52 1013.0
20260503011944 50 157 0.0 0.0 0.00 0.00 0.00 54 1013.0
20260503011444 50 159 0.0 0.0 0.00 0.00 0.00 56 1013.0
20260503010944 51 156 0.0 0.0 0.00 0.00 0.00 58 1013.0
20260503010444 51 159 0.0 0.0 0.00 0.00 0.00 57 1013.0
20260503005944 51 143 0.0 0.0 0.00 0.00 0.00 57 1013.0
20260503005444 51 171 0.0 0.0 0.00 0.00 0.00 53 1013.0
20260503004944 51 160 0.0 0.0 0.00 0.00 0.00 53 1013.0
20260503004444 52 164 0.0 0.0 0.00 0.00 0.00 50 1013.0
20260503003944 52 163 0.0 0.0 0.00 0.00 0.00 46 1013.0
20260503003444 52 120 0.0 0.0 0.00 0.00 0.00 45 1013.0
20260503002944 53 162 0.0 0.0 0.00 0.00 0.00 46 1013.0
20260503002444 53 169 0.0 0.0 0.00 0.00 0.00 43 1013.0
20260503001944 54 172 0.0 0.0 0.00 0.00 0.00 47 1013.0
20260503001445 54 228 0.0 0.9 0.00 0.00 0.00 44 1013.0
20260503000944 54 303 1.7 1.7 0.00 0.00 0.00 41 1013.0
20260503000444 55 80 0.9 0.9 0.00 0.00 0.00 47 1013.0
20260502235944 55 160 1.7 1.7 0.00 0.00 0.00 47 1013.0
20260502235444 55 171 0.0 0.9 0.00 0.00 0.00 44 1013.0
20260502234945 55 0 1.7 1.7 0.00 0.00 0.00 36 1013.0
20260502234444 55 123 1.7 1.7 0.00 0.00 0.00 33 1013.0
20260502233945 55 161 0.0 2.6 0.00 0.00 0.00 33 1013.0
20260502233444 54 154 0.9 1.7 0.00 0.00 0.00 36 1013.0
20260502232944 54 136 1.7 1.7 0.00 0.00 0.00 34 1014.0
20260502232445 54 69 1.7 1.7 0.00 0.00 0.00 32 1014.0
20260502231944 54 127 1.7 2.6 0.00 0.00 0.00 35 1014.0
20260502231444 54 41 1.7 2.6 0.00 0.00 0.00 33 1014.0
20260502230944 55 50 2.6 3.5 0.00 0.00 0.00 30 1014.0
20260502230446 54 44 1.7 2.6 0.00 0.00 0.00 31 1014.0
20260502225944 54 12 3.5 4.3 0.00 0.00 0.00 30 1014.0
20260502225444 55 358 3.5 3.5 0.00 0.00 0.00 31 1014.0
20260502224945 54 38 2.6 3.5 0.00 0.00 0.00 31 1014.0
20260502224444 55 37 3.5 3.5 0.00 0.00 0.00 30 1014.0
20260502223944 55 46 3.5 3.5 0.00 0.00 0.00 31 1014.0
20260502223444 55 293 1.7 5.2 0.00 0.00 0.00 31 1014.0
20260502222944 56 15 2.6 3.5 0.00 0.00 0.00 31 1014.0
20260502222444 55 356 3.5 3.5 0.00 0.00 0.00 31 1014.0
20260502221944 55 329 4.3 5.2 0.00 0.00 0.00 33 1015.0
20260502221444 54 13 2.6 3.5 0.00 0.00 0.00 34 1015.0
20260502220944 54 358 2.6 3.5 0.00 0.00 0.00 35 1015.0
20260502220444 54 27 2.6 3.5 0.00 0.00 0.00 38 1015.0
20260502215944 54 21 4.3 4.3 0.00 0.00 0.00 35 1015.0
20260502215445 55 3 4.3 5.2 0.00 0.00 0.00 35 1015.0
20260502214945 53 24 3.5 3.5 0.00 0.00 0.00 38 1015.0
20260502214444 54 29 3.5 4.3 0.00 0.00 0.00 37 1015.0
20260502213944 53 325 2.6 4.3 0.00 0.00 0.00 38 1015.0
20260502213444 54 57 3.5 3.5 0.00 0.00 0.00 41 1015.0
20260502212944 53 39 4.3 4.3 0.00 0.00 0.00 38 1015.0
20260502212444 53 103 2.6 3.5 0.00 0.00 0.00 37 1015.0
20260502211944 52 354 3.5 4.3 0.00 0.00 0.00 44 1015.0
20260502211445 51 174 1.7 3.5 0.00 0.00 0.00 46 1015.0
20260502210944 50 71 2.6 4.3 0.00 0.00 0.00 47 1015.0
20260502210444 50 75 5.2 5.2 0.00 0.00 0.00 48 1015.0
20260502205944 51 3 5.2 5.2 0.00 0.00 0.00 44 1015.0
20260502205445 51 25 3.5 5.2 0.00 0.00 0.00 44 1016.0
20260502204944 50 20 3.5 4.3 0.00 0.00 0.00 48 1016.0
20260502204444 51 44 5.2 5.2 0.00 0.00 0.00 47 1016.0
20260502203944 51 308 3.5 5.2 0.00 0.00 0.00 48 1016.0
20260502203444 52 37 3.5 5.2 0.00 0.00 0.00 45 1016.0
20260502202944 50 4 2.6 3.5 0.00 0.00 0.00 47 1016.0
20260502202444 49 115 1.7 3.5 0.00 0.00 0.00 52 1016.0
20260502201944 49 9 4.3 5.2 0.00 0.00 0.00 50 1016.0
20260502201444 48 19 4.3 6.1 0.00 0.00 0.00 49 1016.0
20260502200944 48 335 2.6 5.2 0.00 0.00 0.00 50 1016.0
20260502200444 50 5 3.5 6.1 0.00 0.00 0.00 48 1016.0
20260502195944 48 22 5.2 5.2 0.00 0.00 0.00 51 1017.0
20260502195444 50 221 2.6 6.1 0.00 0.00 0.00 48 1017.0
20260502194944 50 21 7.8 7.8 0.00 0.00 0.00 44 1017.0
20260502194444 49 35 3.5 3.5 0.00 0.00 0.00 48 1017.0
20260502193945 52 43 2.6 3.5 0.00 0.00 0.00 47 1017.0
20260502193444 51 44 2.6 4.3 0.00 0.00 0.00 45 1017.0
20260502192944 50 61 3.5 3.5 0.00 0.00 0.00 49 1017.0
20260502192445 50 28 2.6 4.3 0.00 0.00 0.00 53 1017.0
20260502191946 49 313 2.6 3.5 0.00 0.00 0.00 55 1017.0
20260502191444 49 342 2.6 3.5 0.00 0.00 0.00 58 1017.0
20260502190945 48 310 2.6 3.5 0.00 0.00 0.00 57 1017.0
20260502190444 48 328 2.6 4.3 0.00 0.00 0.00 58 1018.0
20260502185944 48 37 1.7 2.6 0.00 0.00 0.00 60 1018.0
20260502185444 48 5 2.6 3.5 0.00 0.00 0.00 62 1018.0
20260502184944 48 38 1.7 4.3 0.00 0.00 0.00 59 1018.0
20260502184444 48 300 1.7 4.3 0.00 0.00 0.00 57 1018.0
20260502183944 49 344 2.6 3.5 0.00 0.00 0.00 58 1018.0
20260502183444 48 325 2.6 5.2 0.00 0.00 0.00 58 1018.0
20260502182945 49 313 4.3 4.3 0.00 0.00 0.00 57 1018.0
20260502182444 49 56 1.7 3.5 0.00 0.00 0.00 58 1018.0
20260502181944 49 328 3.5 3.5 0.00 0.00 0.00 58 1018.0
20260502181444 49 318 2.6 4.3 0.00 0.00 0.00 58 1018.0
20260502180944 48 290 2.6 5.2 0.00 0.00 0.00 58 1018.0
20260502180444 49 335 5.2 6.1 0.00 0.00 0.00 55 1019.0
20260502170444 49 311 3.5 3.5 0.00 0.00 0.00 57 1019.0
20260502163945 49 316 3.5 4.3 0.00 0.00 0.00 60 1019.0
20260502163444 49 312 5.2 5.2 0.00 0.00 0.00 55 1019.0
20260502162944 48 25 4.3 6.1 0.00 0.00 0.00 55 1019.0
20260502162445 49 320 4.3 4.3 0.00 0.00 0.00 57 1019.0
20260502161944 48 319 5.2 5.2 0.00 0.00 0.00 57 1019.0
20260502161444 47 327 4.3 4.3 0.00 0.00 0.00 58 1020.0
20260502160944 48 262 6.1 6.1 0.00 0.00 0.00 58 1020.0
20260502160444 48 334 2.6 2.6 0.00 0.00 0.00 60 1020.0
20260502151944 46 308 5.2 5.2 0.00 0.00 0.00 65 1020.0
20260502151444 46 312 4.3 5.2 0.00 0.00 0.00 62 1020.0
20260502150945 46 305 4.3 5.2 0.00 0.00 0.00 62 1020.0
20260502150444 46 324 5.2 5.2 0.00 0.00 0.00 61 1020.0
20260502130444 40 159 1.7 2.6 0.00 0.00 0.00 67 1021.0
20260502123444 35 155 1.7 1.7 0.00 0.00 0.00 76 1021.0
20260502122944 34 149 1.7 2.6 0.00 0.00 0.00 83 1021.0
20260502122444 33 193 1.7 2.6 0.00 0.00 0.00 85 1021.0
20260502121944 33 158 1.7 2.6 0.00 0.00 0.00 88 1021.0
20260502121444 32 141 2.6 2.6 0.00 0.00 0.00 89 1021.0
20260502120513 31 162 1.7 2.6 0.00 0.00 0.00 87 1021.0
20260502115444 31 156 2.6 2.6 0.00 0.00 0.00 89 1021.0
20260502114944 30 155 1.7 2.6 0.00 0.00 0.00 90 1021.0
20260502114444 30 157 1.7 2.6 0.00 0.00 0.00 89 1021.0
20260502113945 30 165 1.7 2.6 0.00 0.00 0.00 89 1021.0
20260502113444 30 159 1.7 2.6 0.00 0.00 0.00 89 1021.0
20260502112945 30 160 2.6 2.6 0.00 0.00 0.00 89 1021.0
20260502112444 30 159 1.7 2.6 0.00 0.00 0.00 89 1021.0
20260502111944 30 166 2.6 2.6 0.00 0.00 0.00 90 1021.0
20260502111444 30 155 2.6 2.6 0.00 0.00 0.00 90 1021.0
20260502110944 30 160 2.6 2.6 0.00 0.00 0.00 90 1021.0
20260502110444 30 160 2.6 2.6 0.00 0.00 0.00 90 1021.0
20260502105944 30 158 2.6 2.6 0.00 0.00 0.00 89 1021.0
20260502105444 30 151 2.6 2.6 0.00 0.00 0.00 89 1021.0
20260502104944 30 163 2.6 2.6 0.00 0.00 0.00 88 1021.0
20260502104444 30 161 2.6 2.6 0.00 0.00 0.00 87 1021.0
20260502103944 30 166 1.7 2.6 0.00 0.00 0.00 86 1021.0
20260502103444 30 156 2.6 2.6 0.00 0.00 0.00 86 1021.0
20260502102944 30 154 2.6 2.6 0.00 0.00 0.00 86 1021.0
20260502102444 30 170 1.7 2.6 0.00 0.00 0.00 86 1021.0
20260502101944 30 167 2.6 2.6 0.00 0.00 0.00 88 1021.0
20260502101444 30 145 2.6 3.5 0.00 0.00 0.00 89 1021.0
20260502100944 30 175 2.6 2.6 0.00 0.00 0.00 90 1021.0
20260502100445 29 156 2.6 2.6 0.00 0.00 0.00 90 1021.0
20260502091444 30 151 3.5 3.5 0.00 0.00 0.00 87 1021.0
20260502090944 30 162 2.6 3.5 0.00 0.00 0.00 87 1021.0
20260502090445 30 152 2.6 3.5 0.00 0.00 0.00 88 1021.0
20260502071444 30 157 1.7 2.6 0.00 0.00 0.00 90 1021.0
20260502070945 30 173 2.6 2.6 0.00 0.00 0.00 90 1021.0
20260502070444 30 158 2.6 2.6 0.00 0.00 0.00 89 1021.0
20260502065944 30 171 2.6 3.5 0.00 0.00 0.00 89 1022.0
20260502065444 29 177 2.6 2.6 0.00 0.00 0.00 90 1022.0
20260502064944 29 153 1.7 3.5 0.00 0.00 0.00 90 1022.0
20260502064444 29 174 2.6 3.5 0.00 0.00 0.00 91 1022.0
20260502063944 29 158 2.6 3.5 0.00 0.00 0.00 91 1022.0
20260502063444 29 154 2.6 2.6 0.00 0.00 0.00 91 1022.0
20260502062944 29 159 2.6 2.6 0.00 0.00 0.00 91 1022.0
20260502062444 29 165 2.6 2.6 0.00 0.00 0.00 91 1022.0
20260502061945 29 140 1.7 2.6 0.00 0.00 0.00 91 1022.0
20260502061444 29 166 2.6 2.6 0.00 0.00 0.00 92 1022.0
20260502060944 29 162 1.7 2.6 0.00 0.00 0.00 92 1022.0
20260502060444 29 167 1.7 1.7 0.00 0.00 0.00 92 1022.0
20260502055944 29 158 1.7 1.7 0.00 0.00 0.00 92 1022.0
20260502055444 29 169 1.7 1.7 0.00 0.00 0.00 92 1022.0
20260502054944 29 159 1.7 1.7 0.00 0.00 0.00 92 1022.0
20260502054446 29 166 1.7 1.7 0.00 0.00 0.00 92 1022.0
20260502053945 29 168 1.7 1.7 0.00 0.00 0.00 92 1022.0
20260502053445 29 167 1.7 1.7 0.00 0.00 0.00 92 1022.0
20260502052944 29 168 1.7 1.7 0.00 0.00 0.00 92 1022.0
20260502052444 29 167 1.7 1.7 0.00 0.00 0.00 92 1022.0
20260502051944 29 167 1.7 1.7 0.00 0.00 0.00 92 1022.0
20260502051444 29 166 1.7 1.7 0.00 0.00 0.00 92 1022.0
20260502050944 29 163 1.7 1.7 0.00 0.00 0.00 91 1022.0